Nenana, AK

4:17 PM AKDT on September 24, 2016 (GMT -0800)
Nenana Municipal

Weather History for PANN - August, 2013

Change the Weather History Date:

Monday, August 26, 2013

  Actual Average Record
Temperature  
Mean Temperature 57 °F -  
Max Temperature 64 °F 62 °F 79 °F (1989)
Min Temperature 44 °F 39 °F 35 °F (2008)
Degree Days  
Heating Degree Days 8    
Growing Degree Days 7 (Base 50)    
Moisture  
Dew Point 36 °F    
Average Humidity 63    
Maximum Humidity 93    
Minimum Humidity 33    
Precipitation  
Precipitation 0.01 in - - ()
Sea Level Pressure  
Sea Level Pressure 29.79 in    
Wind  
Wind Speed 3 mph (NE)    
Max Wind Speed 13 mph    
Max Gust Speed 20 mph    
Visibility 10 miles    
Events Rain    
Averages and records for this station are not official NWS values.
T = Trace of Precipitation, MM = Missing Value Source: NWS Daily Summary

Daily Weather History Graph

Daily Weather History Graph

Search for Another Location

Airport or City:

Trip Planner

Search our weather history database for the weather conditions in past years. The results will help you decide how hot, cold, wet, or windy it might be!

Date:

Astronomy

Aug. 26, 2013 Rise Set
Actual Time 6:20 AM AKDT 9:33 PM AKDT
Civil Twilight 5:22 AM AKDT 10:30 PM AKDT
Nautical Twilight 3:55 AM AKDT 11:55 PM AKDT
Astronomical Twilight Sun does not set Sun does not set
Moon 10:10 PM AKDT (8/26) 3:08 PM AKDT (8/26)
Length of Visible Light 17h 07m
Length of Day
15h 12m
Waning Gibbous, 65% of the Moon is Illuminated
Aug 26
Waning Gibbous
Aug 28
Last Quarter
Sep 5
New
Sep 12
First Quarter
Sep 19
Full

Hourly Weather History & Observations

Time (AKDT) Temp. Windchill Dew Point Humidity Pressure Visibility Wind Dir Wind Speed Gust Speed Precip Events Conditions
12:53 AM 43.0 °F 41.3 °F 35.1 °F 74% 29.77 in 10.0 mi NE 3.5 mph - N/A   Clear
1:53 AM 39.0 °F - 34.0 °F 82% 29.78 in 10.0 mi Calm Calm - N/A   Clear
2:53 AM 36.0 °F - 34.0 °F 93% 29.79 in 10.0 mi Calm Calm - N/A   Clear
3:53 AM 35.1 °F - 33.1 °F 92% 29.80 in 10.0 mi Calm Calm - N/A   Clear
4:53 AM 34.0 °F - 32.0 °F 92% 29.81 in 10.0 mi Calm Calm - N/A   Clear
5:43 AM 32.0 °F - 28.4 °F 87% 29.78 in 2.0 mi Calm Calm - N/A   Clear
5:53 AM 32.0 °F - 28.9 °F 88% 29.81 in 10.0 mi Calm Calm - N/A   Clear
6:53 AM 30.9 °F - 28.9 °F 92% 29.82 in 10.0 mi Calm Calm - N/A   Clear
7:53 AM 35.1 °F - 33.1 °F 92% 29.83 in 10.0 mi Calm Calm - N/A   Clear
8:53 AM 42.1 °F - 35.1 °F 76% 29.82 in 10.0 mi Calm Calm - N/A   Clear
9:53 AM 48.9 °F - 33.1 °F 54% 29.82 in 10.0 mi East 8.1 mph - N/A   Clear
10:53 AM 52.0 °F - 32.0 °F 47% 29.82 in 10.0 mi East 12.7 mph 19.6 mph N/A   Clear
11:53 AM 55.9 °F - 34.0 °F 44% 29.81 in 10.0 mi East 10.4 mph - N/A   Clear
12:53 PM 59.0 °F - 36.0 °F 42% 29.80 in 10.0 mi East 9.2 mph - N/A   Clear
1:53 PM 61.0 °F - 37.0 °F 41% 29.80 in 10.0 mi ENE 8.1 mph - N/A   Clear
2:53 PM 62.1 °F - 37.0 °F 39% 29.79 in 10.0 mi ENE 11.5 mph 16.1 mph N/A   Clear
3:53 PM 64.0 °F - 37.0 °F 37% 29.78 in 10.0 mi East 10.4 mph - N/A   Clear
4:53 PM 64.0 °F - 35.1 °F 34% 29.77 in 10.0 mi East 10.4 mph - N/A   Clear
5:53 PM 64.0 °F - 34.0 °F 33% 29.76 in 10.0 mi East 8.1 mph - N/A   Clear
6:53 PM 63.0 °F - 34.0 °F 34% 29.76 in 10.0 mi NE 5.8 mph - N/A   Clear
7:53 PM 61.0 °F - 35.1 °F 38% 29.76 in 10.0 mi North 5.8 mph - N/A   Clear
8:53 PM 55.9 °F - 37.0 °F 49% 29.76 in 10.0 mi North 3.5 mph - N/A   Clear
9:53 PM 53.1 °F - 36.0 °F 52% 29.77 in 10.0 mi NW 4.6 mph - N/A   Clear
10:53 PM 45.0 °F - 37.9 °F 76% 29.77 in 10.0 mi Calm Calm - N/A   Clear
11:53 PM 44.1 °F 41.5 °F 36.0 °F 73% 29.78 in 10.0 mi WNW 4.6 mph - N/A   Clear